NOAA NWS Hourly Roundups by Site

Regional Weather Roundup for Green Bay, WI

To Select Another Site Choose from List

Select Site:  

000
ASUS43 KGRB 152211
RWRGRB

NORTH-CENTRAL AND NORTHEAST WISCONSIN REGIONAL WEATHER ROUNDUP
NATIONAL WEATHER SERVICE GREEN BAY WI
500 PM CDT SUN SEP 15 2019

WIZ005-009-010>012-018-019-152300-
NORTH CENTRAL WISCONSIN

CITY           SKY/WX    TMP DP  RH WIND       PRES   REMARKS
IRONWOOD       FAIR      69  63  81 NW6       30.00S HAZE
MANITOWISH WTR FAIR      70  64  81 E3        30.01R
ARBOR VITAE    FAIR      70  65  84 CALM      30.01S
EAGLE RIVER    CLOUDY    66  60  79 SW3       30.02S
LAND O LAKES   PTSUNNY   68  60  77 CALM      30.03S
RHINELANDER    CLOUDY    68  62  81 E5        30.02S
PHILLIPS       FAIR      74  61  61 CALM      29.99S
ANTIGO         CLOUDY    62  62 100 CALM      30.03S FOG
TOMAHAWK       PTSUNNY   69  63  81 CALM      30.01S
MERRILL        FAIR      69  64  86 CALM      30.02R
$$

WIZ013-073-152300-
NORTHEAST WISCONSIN

CITY           SKY/WX    TMP DP  RH WIND       PRES   REMARKS
IRON MOUNTAIN  CLOUDY    67  60  78 S5        30.00S
MARINETTE      CLOUDY    64  61  88 E6        30.01S
OCONTO         CLOUDY    67  63  87 E3        29.99S
$$

WIZ017-030-035>037-045-152300-
CENTRAL WISCONSIN

CITY           SKY/WX    TMP DP  RH WIND       PRES   REMARKS
MEDFORD        FAIR      73  64  73 SW3       30.00S
WAUSAU         PTSUNNY   71  64  78 CALM      29.99F
MOSINEE        PTSUNNY   70  68  94 CALM      30.02S
MARSHFIELD     FAIR      75  64  68 N6        29.99S
WISC RAPIDS    FAIR      75  66  73 CALM      30.00S
STEVENS POINT  PTSUNNY   70  66  85 CALM      30.01S
WAUPACA        CLOUDY    72  68  87 NW5       30.01R
SHAWANO        CLOUDY    69  65  87 CALM      30.00S
CLINTONVILLE   NOT AVBL
WAUTOMA        CLOUDY    72  68  88 CALM      30.00S
$$

WIZ038-039-048-051-152300-
FOX VALLEY

CITY           SKY/WX    TMP DP  RH WIND       PRES   REMARKS
NWS GREEN BAY  CLOUDY    68  63  84 N6        29.99S
APPLETON       CLOUDY    72  63  73 VRB6      29.99R
OSHKOSH        CLOUDY    72  66  81 CALM      29.99R
FOND DU LAC    CLOUDY    75  67  76 W3        29.99R
$$

WIZ022-050-052-152300-
EAST CENTRAL WISCONSIN

CITY           SKY/WX    TMP DP  RH WIND       PRES   REMARKS
EPHRAIM        MOCLDY    65  61  87 N5        29.99R
WASHINGTON ISL CLOUDY    65  62  90 CALM      29.99S
STURGEON BAY   CLOUDY    66  63  90 MISG      30.00S
MANITOWOC      CLOUDY    67  64  90 S9        29.99F
SHEBOYGAN      CLOUDY    68  64  87 SE6       29.99S
$$

LMZ563-521-522-541>543-152300-
LAKESHORE

STATION/POSITION TIME  TEMP    WIND        PRES    VSBY  WAVE
                       AIR SEA DIR/SP/G                  HT/PER
                 (UTC) (F)     (DEG/KT/KT) (MB)    (MI)  (FT/S)
SHEBOYGAN LKSHOR 2200   65     180/  9/ 10 1015.7S
KEWAUNEE LKSHORE 2124   63     160/  7/  8 1015.0
NORTHPORT PIER   2140   63      CALM  /  3 1015.6F
N MID LAKE BUOY  2150   62 60  130/  4/  6 1016.3F         1/ 4
SISTER BAY LKSHO 2159   65      30/  9/ 10   N/A
MENOMINEE LKSHOR 2124   62 64   30/  9/ 11 1015.5
$$



 

View Past Reports for Green Bay, WI.

Products Courtesy of NOAA-NWS
NWS Information Parsing Script by Ken True at Saratoga Weather - Script by SE Lincoln Weather.